When you browse on this site, cookies collect data to enhance your experience and personalize the content and advertising you see.
Visit our Privacy Policy to learn more. By continuing to use the site, you agree to this use of cookies and data.
  • en Suisse
  • Liste des pays
  • À 7 jours
  • Température de l'eau
  • Carte satellitaire
  • Carte météo
  • Widgets météo
  • user-avatar
    Se connecter

    Météo par heure à Etchmiadzin

    Ce jour, 25 Juin, Mardi

    Heure Température Précipitation Vent Pression Humidité
    00:00 +25°C° 0.1 mm 2 m/s 687 mmHg 60%
    01:00 +24°C° 0 mm 2 m/s 687 mmHg 61%
    02:00 +24°C° 0 mm 2 m/s 687 mmHg 61%
    03:00 +24°C° 0 mm 2 m/s 687 mmHg 60%
    04:00 +24°C° 0 mm 2 m/s 687 mmHg 59%
    05:00 +25°C° 0 mm 2 m/s 687 mmHg 58%
    06:00 +25°C° 0 mm 2 m/s 688 mmHg 57%
    07:00 +27°C° 0 mm 2 m/s 688 mmHg 52%
    08:00 +29°C° 0 mm 1 m/s 688 mmHg 47%
    09:00 +31°C° 0 mm 1 m/s 688 mmHg 41%
    10:00 +33°C° 0 mm 1 m/s 688 mmHg 38%
    11:00 +34°C° 0 mm 1 m/s 688 mmHg 35%
    12:00 +35°C° 0 mm 1 m/s 688 mmHg 32%
    13:00 +36°C° 0.1 mm 1 m/s 688 mmHg 30%
    14:00 +37°C° 0.1 mm 1 m/s 688 mmHg 28%
    15:00 +37°C° 0 mm 1 m/s 688 mmHg 25%
    16:00 +37°C° 0 mm 3 m/s 688 mmHg 28%
    17:00 +36°C° 0 mm 5 m/s 688 mmHg 32%
    18:00 +35°C° 0 mm 6 m/s 688 mmHg 35%
    19:00 +33°C° 0 mm 5 m/s 688 mmHg 38%
    20:00 +30°C° 0 mm 4 m/s 688 mmHg 42%
    21:00 +28°C° 0 mm 3 m/s 688 mmHg 46%
    22:00 +27°C° 0 mm 3 m/s 688 mmHg 47%
    23:00 +27°C° 0 mm 2 m/s 688 mmHg 48%

    Demain, 26 Juin, Mercredi

    Heure Température Précipitation Vent Pression Humidité
    00:00 +26°C° 0 mm 2 m/s 688 mmHg 50%
    01:00 +25°C° 0 mm 2 m/s 688 mmHg 51%
    02:00 +25°C° 0 mm 2 m/s 688 mmHg 52%
    03:00 +24°C° 0 mm 2 m/s 687 mmHg 53%
    04:00 +25°C° 0 mm 2 m/s 688 mmHg 52%
    05:00 +25°C° 0 mm 2 m/s 688 mmHg 51%
    06:00 +26°C° 0 mm 2 m/s 688 mmHg 50%
    07:00 +28°C° 0 mm 1 m/s 688 mmHg 45%
    08:00 +30°C° 0 mm 1 m/s 689 mmHg 41%
    09:00 +31°C° 0 mm 1 m/s 689 mmHg 36%
    10:00 +33°C° 0 mm 1 m/s 689 mmHg 33%
    11:00 +34°C° 0 mm 1 m/s 689 mmHg 31%
    12:00 +36°C° 0 mm 1 m/s 689 mmHg 28%
    13:00 +36°C° 0 mm 1 m/s 688 mmHg 27%
    14:00 +37°C° 0 mm 1 m/s 688 mmHg 25%
    15:00 +37°C° 0 mm 1 m/s 688 mmHg 23%
    16:00 +37°C° 0 mm 2 m/s 687 mmHg 28%
    17:00 +35°C° 0 mm 3 m/s 687 mmHg 33%
    18:00 +34°C° 0 mm 4 m/s 686 mmHg 39%
    19:00 +31°C° 0.1 mm 3 m/s 686 mmHg 42%
    20:00 +29°C° 0.1 mm 3 m/s 687 mmHg 46%
    21:00 +28°C° 0.1 mm 2 m/s 687 mmHg 50%
    22:00 +27°C° 0.3 mm 2 m/s 686 mmHg 53%
    23:00 +26°C° 0.3 mm 2 m/s 686 mmHg 57%

    Après-demain, 27 Juin, Jeudi

    Heure Température Précipitation Vent Pression Humidité
    00:00 +25°C° 0.3 mm 2 m/s 686 mmHg 60%
    01:00 +24°C° 0.1 mm 2 m/s 686 mmHg 62%
    02:00 +24°C° 0.1 mm 2 m/s 686 mmHg 64%
    03:00 +23°C° 0.1 mm 1 m/s 686 mmHg 66%
    04:00 +24°C° 0.1 mm 1 m/s 686 mmHg 65%
    05:00 +24°C° 0.1 mm 1 m/s 686 mmHg 63%
    06:00 +25°C° 0.1 mm 1 m/s 686 mmHg 62%
    07:00 +26°C° 0.1 mm 1 m/s 686 mmHg 56%
    08:00 +28°C° 0.1 mm 1 m/s 686 mmHg 50%
    09:00 +30°C° 0.1 mm 1 m/s 686 mmHg 44%
    10:00 +31°C° 0.1 mm 1 m/s 686 mmHg 40%
    11:00 +33°C° 0.1 mm 1 m/s 686 mmHg 36%
    12:00 +34°C° 0.1 mm 1 m/s 685 mmHg 33%
    13:00 +35°C° 0.1 mm 1 m/s 685 mmHg 31%
    14:00 +35°C° 0.1 mm 1 m/s 685 mmHg 30%
    15:00 +36°C° 0.1 mm 1 m/s 684 mmHg 28%
    16:00 +35°C° 0.2 mm 3 m/s 684 mmHg 33%
    17:00 +33°C° 0.2 mm 4 m/s 684 mmHg 39%
    18:00 +32°C° 0.2 mm 5 m/s 683 mmHg 44%
    19:00 +29°C° 0.3 mm 4 m/s 683 mmHg 49%
    20:00 +27°C° 0.3 mm 3 m/s 683 mmHg 54%
    21:00 +26°C° 0.3 mm 2 m/s 683 mmHg 60%
    22:00 +25°C° 0.1 mm 2 m/s 683 mmHg 60%
    23:00 +25°C° 0.1 mm 2 m/s 683 mmHg 60%

    28 Juin, Vendredi

    Heure Température Précipitation Vent Pression Humidité
    00:00 +25°C° 0.1 mm 2 m/s 683 mmHg 61%
    01:00 +24°C° 0 mm 2 m/s 683 mmHg 63%
    02:00 +24°C° 0 mm 2 m/s 682 mmHg 64%
    03:00 +23°C° 0 mm 2 m/s 682 mmHg 66%
    04:00 +23°C° 0.1 mm 2 m/s 682 mmHg 65%
    05:00 +24°C° 0.1 mm 2 m/s 682 mmHg 65%
    06:00 +24°C° 0.1 mm 1 m/s 682 mmHg 64%
    07:00 +25°C° 0.1 mm 2 m/s 682 mmHg 59%
    08:00 +27°C° 0.1 mm 2 m/s 682 mmHg 53%
    09:00 +29°C° 0.1 mm 2 m/s 681 mmHg 47%
    10:00 +30°C° 0.2 mm 1 m/s 681 mmHg 43%
    11:00 +31°C° 0.2 mm 1 m/s 681 mmHg 39%
    12:00 +33°C° 0.2 mm 1 m/s 681 mmHg 34%
    13:00 +34°C° 0.2 mm 2 m/s 680 mmHg 33%
    14:00 +35°C° 0.2 mm 2 m/s 680 mmHg 32%
    15:00 +35°C° 0.2 mm 3 m/s 680 mmHg 30%
    16:00 +32°C° 0.9 mm 4 m/s 679 mmHg 40%
    17:00 +28°C° 0.9 mm 5 m/s 679 mmHg 50%
    18:00 +24°C° 0.9 mm 6 m/s 679 mmHg 61%
    19:00 +25°C° 0.3 mm 4 m/s 679 mmHg 62%
    20:00 +24°C° 0.3 mm 3 m/s 680 mmHg 63%
    21:00 +23°C° 0.3 mm 2 m/s 680 mmHg 65%
    22:00 +23°C° 0 mm 1 m/s 680 mmHg 65%
    23:00 +23°C° 0 mm 1 m/s 680 mmHg 65%

    29 Juin, Samedi

    Heure Température Précipitation Vent Pression Humidité
    00:00 +23°C° 0 mm 1 m/s 680 mmHg 64%
    01:00 +23°C° 0.2 mm 1 m/s 680 mmHg 65%
    02:00 +23°C° 0.2 mm 1 m/s 680 mmHg 66%
    03:00 +20°C° 0.2 mm 0 m/s 679 mmHg 67%
    04:00 +23°C° 0 mm 1 m/s 679 mmHg 65%
    05:00 +23°C° 0 mm 1 m/s 679 mmHg 63%
    06:00 +23°C° 0 mm 1 m/s 679 mmHg 61%
    07:00 +25°C° 0 mm 1 m/s 679 mmHg 56%
    08:00 +26°C° 0 mm 2 m/s 679 mmHg 51%
    09:00 +28°C° 0 mm 2 m/s 680 mmHg 46%
    10:00 +29°C° 0.2 mm 2 m/s 680 mmHg 42%
    11:00 +31°C° 0.2 mm 2 m/s 680 mmHg 38%
    12:00 +32°C° 0.2 mm 2 m/s 680 mmHg 34%
    13:00 +34°C° 0.2 mm 2 m/s 679 mmHg 32%
    14:00 +35°C° 0.2 mm 3 m/s 679 mmHg 30%
    15:00 +35°C° 0.2 mm 3 m/s 679 mmHg 29%
    16:00 +31°C° 1.1 mm 3 m/s 679 mmHg 41%
    17:00 +27°C° 1.1 mm 3 m/s 678 mmHg 54%
    18:00 +24°C° 1.1 mm 3 m/s 678 mmHg 67%
    19:00 +22°C° 0.3 mm 3 m/s 679 mmHg 69%
    20:00 +23°C° 0.3 mm 2 m/s 679 mmHg 72%
    21:00 +21°C° 0.3 mm 2 m/s 680 mmHg 74%
    22:00 +22°C° 0.2 mm 1 m/s 680 mmHg 76%
    23:00 +21°C° 0.2 mm 1 m/s 680 mmHg 79%

    30 Juin, Dimanche

    Heure Température Précipitation Vent Pression Humidité
    00:00 +20°C° 0.2 mm 1 m/s 680 mmHg 82%
    01:00 +20°C° 0.2 mm 1 m/s 680 mmHg 81%
    02:00 +20°C° 0.2 mm 1 m/s 680 mmHg 80%
    03:00 +20°C° 0.2 mm 1 m/s 680 mmHg 79%
    04:00 +20°C° 0.1 mm 1 m/s 680 mmHg 78%
    05:00 +21°C° 0.1 mm 1 m/s 680 mmHg 77%
    06:00 +21°C° 0.1 mm 1 m/s 680 mmHg 75%
    07:00 +22°C° 0.2 mm 1 m/s 680 mmHg 69%
    08:00 +24°C° 0.2 mm 2 m/s 680 mmHg 63%
    09:00 +25°C° 0.2 mm 2 m/s 680 mmHg 57%
    10:00 +26°C° 0.3 mm 2 m/s 680 mmHg 52%
    11:00 +28°C° 0.3 mm 2 m/s 680 mmHg 47%
    12:00 +29°C° 0.3 mm 2 m/s 680 mmHg 41%
    13:00 +30°C° 0.5 mm 2 m/s 680 mmHg 39%
    14:00 +31°C° 0.5 mm 2 m/s 680 mmHg 37%
    15:00 +31°C° 0.5 mm 2 m/s 680 mmHg 35%
    16:00 +29°C° 1 mm 3 m/s 680 mmHg 42%
    17:00 +27°C° 1 mm 4 m/s 680 mmHg 49%
    18:00 +26°C° 1 mm 5 m/s 679 mmHg 57%
    19:00 +23°C° 1.1 mm 4 m/s 680 mmHg 62%
    20:00 +22°C° 1.1 mm 4 m/s 680 mmHg 68%
    21:00 +20°C° 1.1 mm 3 m/s 680 mmHg 74%
    22:00 +20°C° 0.3 mm 3 m/s 680 mmHg 74%
    23:00 +19°C° 0.3 mm 3 m/s 680 mmHg 74%
    Voir plus